Flag Weather past 2 weeks in George Town, Cayman Islands

Now
81 °F

Warm.


Feels Like: 85 °F
Forecast: 81 / 84 °F
Wind: 7 mph from South

Location: Cayo Largo Del Sur

Current Time: Nov 26, 2014 at 3:02:32 AM

Latest Report: Nov 26, 2014 at 2:05 AM


Visibility: N/A

Pressure: 29.95 "Hg

Humidity: 79%

Dew point: 73 °F

Location of George TownLocation

Historic Weather in George Town — Graph

°F

George Town temperature yesterday

Maximum temperature yesterday: 86 °F (at 11:51 AM)
Minimum temperature yesterday: 79 °F (at 2:05 AM)
Average temperature yesterday: 82 °F

Past Weeks' High & Low Weather Summary

 TemperatureHumidityPressure
High86 °F (Nov 17, 1:55 PM)94% (Nov 18, 3:05 AM)30.12 "Hg (Nov 18, 3:05 AM)
Low72 °F (Nov 11, 6:05 AM)54% (Nov 12, 3:51 PM)29.86 "Hg (Nov 23, 2:51 PM)
Average79 °F76%29.99 "Hg
* Reported Nov 11 1:05 AM — Nov 26 1:05 AM, George Town, Weather by CustomWeather, © 2014

Note: Actual official high and low records may vary slightly from our data, if they occured in-between our weather recording intervals... More about our weather records

Advertising

George Town weather history for previous 24 hours

 ConditionsComfort  
Time TempWeatherWind HumidityBarometerVisibility
1:05 AM
Nov 26
81 °FWarm.6 mph79%29.95 "HgN/A
12:05 AM81 °FWarm.7 mph79%29.98 "HgN/A
11:05 PM
Nov 25
81 °FWarm.8 mph84%29.98 "HgN/A
10:05 PM81 °FWarm.9 mph84%29.98 "HgN/A
9:05 PM81 °FWarm.8 mph84%29.98 "HgN/A
8:05 PM81 °FWarm.7 mph84%29.95 "HgN/A
6:54 PM82 °FPassing clouds.9 mph79%29.92 "Hg6 mi
5:53 PM82 °FPassing clouds.10 mph79%29.92 "Hg6 mi
4:51 PM82 °FPassing clouds.13 mph79%29.92 "HgN/A
3:52 PM84 °FPassing clouds.14 mph74%29.92 "HgN/A
2:51 PM84 °FPassing clouds.15 mph74%29.92 "HgN/A
1:51 PM84 °FPassing clouds.14 mph74%29.92 "HgN/A
12:51 PM86 °FPassing clouds.15 mph70%29.95 "HgN/A
11:51 AM86 °FScattered clouds.13 mph70%29.98 "Hg6 mi
10:51 AM84 °FScattered clouds.14 mph74%30.01 "Hg6 mi
9:51 AM84 °FPassing clouds.15 mph74%30.01 "Hg6 mi
8:51 AM84 °FScattered clouds.12 mph74%30.01 "Hg6 mi
7:51 AM81 °FScattered clouds.7 mph84%30.01 "Hg6 mi
6:52 AM79 °FPassing clouds.6 mph84%29.98 "Hg6 mi
6:05 AM79 °FWarm.5 mph84%29.98 "HgN/A
5:05 AM79 °FWarm.7 mph89%29.98 "HgN/A
4:05 AM79 °FWarm.7 mph89%29.95 "HgN/A
3:05 AM79 °FWarm.6 mph89%29.95 "HgN/A
Weather by CustomWeather, © 2014

See weather overviewHow to use our weather pages